{"data":{"norad_id":68520,"epoch":"2026-09-20T03:13:23.905344Z","epoch_age_seconds":79550,"freshness":"FRESH","line1":"1 68520U 26068N   26263.13430446  .00012541  00000+0  38146-3 0  9994","line2":"2 68520  53.1582 301.2407 0001166  90.1438 269.9698 15.34417047 26781","mean_motion":15.34417047,"eccentricity":0.0001166,"inclination_deg":53.1582,"raan_deg":301.2407,"arg_perigee_deg":90.1438,"mean_anomaly_deg":269.9698,"bstar":0.00038146,"rev_number":2678,"period_min":93.84671545558,"perigee_km":461.85493733544,"apogee_km":463.45020946396,"semimajor_km":6840.7895733997,"source":"CELESTRAK","updated_at":"2026-09-20T09:00:43.904264Z"}}